• In Belarus
  • List of Countries
  • For 7 days
  • Water Temperature
  • Satellite Maps
  • Weather Map
  • Weather Widgets
  • user-avatar
    Login

    Hourly Weather Kaznacheevo

    Today, 18 November, Sunday

    Time Temperature Precipitation Wind Pressure Humidity
    00:00 -3°C° 0 mm 4 mps 753 mmHg 35%
    01:00 -3°C° 0 mm 4 mps 752 mmHg 36%
    02:00 -3°C° 0 mm 4 mps 751 mmHg 40%
    03:00 -3°C° 0 mm 4 mps 751 mmHg 42%
    04:00 -3°C° 0 mm 4 mps 750 mmHg 44%
    05:00 -3°C° 0 mm 4 mps 749 mmHg 46%
    06:00 -3°C° 0.1 mm 4 mps 749 mmHg 52%
    07:00 -3°C° 0.1 mm 4 mps 749 mmHg 58%
    08:00 -4°C° 0 mm 4 mps 748 mmHg 56%
    09:00 -3°C° 0.1 mm 4 mps 748 mmHg 60%
    10:00 -3°C° 0.1 mm 4 mps 748 mmHg 64%
    11:00 -2°C° 0.1 mm 3 mps 748 mmHg 69%
    12:00 -2°C° 0 mm 3 mps 748 mmHg 70%
    13:00 -2°C° 0 mm 3 mps 748 mmHg 72%
    14:00 -1°C° 0 mm 3 mps 748 mmHg 74%
    15:00 -2°C° 0 mm 2 mps 748 mmHg 77%
    16:00 -2°C° 0 mm 2 mps 748 mmHg 80%
    17:00 -2°C° 0 mm 2 mps 748 mmHg 83%
    18:00 0°C° 0 mm 1 mps 749 mmHg 84%
    19:00 0°C° 0 mm 1 mps 749 mmHg 85%
    20:00 0°C° 0 mm 1 mps 749 mmHg 86%
    21:00 0°C° 0 mm 1 mps 749 mmHg 87%
    22:00 0°C° 0 mm 1 mps 750 mmHg 88%
    23:00 -1°C° 0 mm 0 mps 750 mmHg 88%

    Tomorrow, 19 November, Monday

    Time Temperature Precipitation Wind Pressure Humidity
    00:00 -1°C° 0 mm 0 mps 750 mmHg 89%
    01:00 -1°C° 0 mm 0 mps 750 mmHg 90%
    02:00 -1°C° 0 mm 0 mps 751 mmHg 90%
    03:00 -1°C° 0 mm 0 mps 751 mmHg 91%
    04:00 -1°C° 0 mm 0 mps 751 mmHg 91%
    05:00 -1°C° 0 mm 0 mps 751 mmHg 92%
    06:00 -1°C° 0 mm 0 mps 751 mmHg 92%
    07:00 0°C° 0 mm 1 mps 752 mmHg 92%
    08:00 0°C° 0 mm 1 mps 752 mmHg 92%
    09:00 +1°C° 0 mm 1 mps 752 mmHg 89%
    10:00 +1°C° 0 mm 1 mps 753 mmHg 86%
    11:00 +2°C° 0 mm 1 mps 753 mmHg 83%
    12:00 +1°C° 0 mm 2 mps 753 mmHg 84%
    13:00 +1°C° 0 mm 2 mps 753 mmHg 85%
    14:00 +1°C° 0 mm 2 mps 753 mmHg 85%
    15:00 -1°C° 0 mm 2 mps 753 mmHg 88%
    16:00 -1°C° 0 mm 2 mps 753 mmHg 91%
    17:00 -2°C° 0 mm 2 mps 753 mmHg 94%
    18:00 -2°C° 0 mm 2 mps 753 mmHg 94%
    19:00 -2°C° 0 mm 2 mps 753 mmHg 95%
    20:00 -2°C° 0 mm 3 mps 753 mmHg 96%
    21:00 -2°C° 0 mm 3 mps 753 mmHg 96%
    22:00 -2°C° 0 mm 3 mps 753 mmHg 96%
    23:00 -2°C° 0 mm 3 mps 754 mmHg 96%

    Day after tomorrow, 20 November, Tuesday

    Time Temperature Precipitation Wind Pressure Humidity
    00:00 -2°C° 0 mm 3 mps 753 mmHg 96%
    01:00 -2°C° 0 mm 3 mps 753 mmHg 96%
    02:00 -2°C° 0 mm 3 mps 753 mmHg 96%
    03:00 -2°C° 0 mm 3 mps 753 mmHg 96%
    04:00 -2°C° 0 mm 3 mps 753 mmHg 96%
    05:00 -2°C° 0 mm 3 mps 753 mmHg 96%
    06:00 -2°C° 0 mm 3 mps 753 mmHg 95%
    07:00 -2°C° 0 mm 3 mps 753 mmHg 94%
    08:00 -3°C° 0 mm 4 mps 753 mmHg 93%
    09:00 -1°C° 0 mm 3 mps 753 mmHg 90%
    10:00 -1°C° 0 mm 3 mps 753 mmHg 87%
    11:00 -1°C° 0 mm 3 mps 753 mmHg 84%
    12:00 -1°C° 0 mm 3 mps 752 mmHg 83%
    13:00 -1°C° 0 mm 3 mps 752 mmHg 82%
    14:00 -1°C° 0 mm 3 mps 752 mmHg 81%
    15:00 -1°C° 0 mm 3 mps 752 mmHg 84%
    16:00 -2°C° 0 mm 2 mps 752 mmHg 86%
    17:00 -2°C° 0 mm 2 mps 752 mmHg 89%
    18:00 -2°C° 0 mm 2 mps 752 mmHg 89%
    19:00 -3°C° 0 mm 2 mps 752 mmHg 88%
    20:00 -3°C° 0 mm 2 mps 752 mmHg 88%
    21:00 -3°C° 0 mm 2 mps 752 mmHg 87%
    22:00 0°C° 0 mm 1 mps 752 mmHg 86%
    23:00 0°C° 0 mm 1 mps 752 mmHg 85%

    21 November, Wednesday

    Time Temperature Precipitation Wind Pressure Humidity
    00:00 0°C° 0 mm 1 mps 752 mmHg 85%
    01:00 0°C° 0 mm 1 mps 752 mmHg 84%
    02:00 0°C° 0 mm 1 mps 752 mmHg 83%
    03:00 0°C° 0 mm 1 mps 752 mmHg 84%
    04:00 -3°C° 0 mm 2 mps 752 mmHg 84%
    05:00 -3°C° 0 mm 2 mps 751 mmHg 85%
    06:00 -3°C° 0 mm 2 mps 751 mmHg 85%
    07:00 -3°C° 0 mm 2 mps 752 mmHg 84%
    08:00 -3°C° 0 mm 2 mps 752 mmHg 84%
    09:00 -2°C° 0 mm 2 mps 752 mmHg 81%
    10:00 -2°C° 0 mm 2 mps 752 mmHg 77%
    11:00 -1°C° 0 mm 3 mps 751 mmHg 74%
    12:00 -1°C° 0 mm 3 mps 751 mmHg 74%
    13:00 -1°C° 0 mm 3 mps 751 mmHg 75%
    14:00 -1°C° 0 mm 3 mps 751 mmHg 75%
    15:00 -2°C° 0 mm 3 mps 751 mmHg 79%
    16:00 -4°C° 0 mm 3 mps 751 mmHg 83%
    17:00 -3°C° 0 mm 2 mps 751 mmHg 87%
    18:00 -4°C° 0 mm 3 mps 751 mmHg 86%
    19:00 -4°C° 0 mm 3 mps 751 mmHg 85%
    20:00 -4°C° 0 mm 3 mps 751 mmHg 85%
    21:00 -4°C° 0 mm 3 mps 751 mmHg 84%
    22:00 -3°C° 0 mm 2 mps 751 mmHg 84%
    23:00 -3°C° 0 mm 2 mps 751 mmHg 83%

    22 November, Thursday

    Time Temperature Precipitation Wind Pressure Humidity
    00:00 -3°C° 0 mm 2 mps 751 mmHg 83%
    01:00 -2°C° 0 mm 2 mps 751 mmHg 84%
    02:00 -2°C° 0 mm 2 mps 751 mmHg 85%
    03:00 -3°C° 0 mm 2 mps 751 mmHg 84%
    04:00 -3°C° 0 mm 2 mps 751 mmHg 83%
    05:00 -3°C° 0 mm 2 mps 750 mmHg 82%
    06:00 -4°C° 0 mm 3 mps 750 mmHg 83%
    07:00 -5°C° 0 mm 3 mps 750 mmHg 84%
    08:00 -5°C° 0 mm 3 mps 750 mmHg 85%
    09:00 -4°C° 0 mm 3 mps 750 mmHg 81%
    10:00 -4°C° 0 mm 4 mps 750 mmHg 76%
    11:00 -3°C° 0 mm 4 mps 750 mmHg 72%
    12:00 -3°C° 0 mm 4 mps 750 mmHg 71%
    13:00 -4°C° 0 mm 5 mps 750 mmHg 71%
    14:00 -4°C° 0 mm 5 mps 749 mmHg 71%
    15:00 -4°C° 0 mm 5 mps 749 mmHg 74%
    16:00 -4°C° 0 mm 4 mps 749 mmHg 78%
    17:00 -4°C° 0 mm 4 mps 750 mmHg 81%
    18:00 -4°C° 0 mm 4 mps 750 mmHg 82%
    19:00 -4°C° 0 mm 4 mps 750 mmHg 83%
    20:00 -5°C° 0 mm 4 mps 750 mmHg 85%
    21:00 -5°C° 0 mm 3 mps 751 mmHg 86%
    22:00 -5°C° 0 mm 3 mps 751 mmHg 87%
    23:00 -5°C° 0 mm 3 mps 751 mmHg 88%

    23 November, Friday

    Time Temperature Precipitation Wind Pressure Humidity
    00:00 -5°C° 0 mm 3 mps 751 mmHg 89%
    01:00 -4°C° 0 mm 3 mps 752 mmHg 90%
    02:00 -3°C° 0 mm 2 mps 752 mmHg 91%
    03:00 -3°C° 0 mm 2 mps 752 mmHg 92%
    04:00 -3°C° 0 mm 2 mps 752 mmHg 93%
    05:00 -3°C° 0 mm 2 mps 753 mmHg 94%
    06:00 -3°C° 0 mm 2 mps 753 mmHg 94%
    07:00 -3°C° 0 mm 2 mps 753 mmHg 94%
    08:00 -3°C° 0 mm 2 mps 754 mmHg 94%
    09:00 -3°C° 0 mm 2 mps 754 mmHg 91%
    10:00 -2°C° 0 mm 2 mps 754 mmHg 87%
    11:00 -1°C° 0 mm 2 mps 754 mmHg 84%
    12:00 -1°C° 0 mm 2 mps 754 mmHg 83%
    13:00 -1°C° 0 mm 2 mps 754 mmHg 82%
    14:00 -1°C° 0 mm 2 mps 754 mmHg 82%
    15:00 -2°C° 0 mm 2 mps 754 mmHg 85%
    16:00 -2°C° 0 mm 2 mps 754 mmHg 88%
    17:00 -4°C° 0 mm 3 mps 754 mmHg 91%
    18:00 -4°C° 0 mm 3 mps 753 mmHg 91%
    19:00 -4°C° 0 mm 3 mps 753 mmHg 92%
    20:00 -5°C° 0 mm 3 mps 753 mmHg 92%
    21:00 -5°C° 0 mm 3 mps 753 mmHg 92%
    22:00 -5°C° 0 mm 4 mps 752 mmHg 91%
    23:00 -5°C° 0 mm 4 mps 752 mmHg 91%
    Show more